South Bend, IN

8:03 AM EST on February 24, 2017 (GMT -0500)
South Bend Regional

Weather History for KSBN - October, 2011

Change the Weather History Date:

Thursday, October 27, 2011

  Actual Average Record
Temperature  
Mean Temperature 41 °F 49 °F  
Max Temperature 49 °F 58 °F 80 °F (1927)
Min Temperature 33 °F 40 °F 18 °F (1936)
Degree Days  
Heating Degree Days 24 16  
Month to date heating degree days 284 337  
Since 1 July heating degree days 441 471  
Cooling Degree Days 0 0  
Month to date cooling degree days 11 8  
Year to date cooling degree days 969 772  
Moisture  
Dew Point 38 °F    
Average Humidity 74    
Maximum Humidity 92    
Minimum Humidity 56    
Precipitation  
Precipitation 0.02 in 0.11 in 1.42 in (1899)
Month to date precipitation 4.42 2.89  
Year to date precipitation 40.25 31.69  
Snow  
Snow 0.00 in 0.10 in 0.60 in (1980)
Month to date snowfall 0.0 0.3  
Since 1 July snowfall 0.0 0.3  
Since 1 September snowfall 0.3  
Snow Depth 0.00 in    
Sea Level Pressure  
Sea Level Pressure 30.01 in    
Wind  
Wind Speed 6 mph (NNW)    
Max Wind Speed 20 mph    
Max Gust Speed 26 mph    
Visibility 10 miles    
Events Rain    
T = Trace of Precipitation, MM = Missing Value Source: NWS Daily Summary

Daily Weather History Graph

Daily Weather History Graph

Search for Another Location

Airport or City:

Trip Planner

Search our weather history database for the weather conditions in past years. The results will help you decide how hot, cold, wet, or windy it might be!

Date:

Astronomy

Oct. 27, 2011 Rise Set
Actual Time 8:11 AM EDT 6:46 PM EDT
Civil Twilight 7:42 AM EDT 7:15 PM EDT
Nautical Twilight 7:09 AM EDT 7:47 PM EDT
Astronomical Twilight 6:37 AM EDT 8:19 PM EDT
Moon 9:15 AM EDT (10/27) 7:13 PM EDT (10/27)
Length of Visible Light 11h 32m
Length of Day
10h 35m
New Moon, 1% of the Moon is Illuminated
Oct 27
New Moon
Nov 2
First Quarter
Nov 10
Full
Nov 18
Last Quarter
Nov 25
New

Hourly Weather History & Observations

Time (EDT) Temp. Windchill Dew Point Humidity Pressure Visibility Wind Dir Wind Speed Gust Speed Precip Events Conditions
12:30 AM 44.6 °F 42.2 °F 42.8 °F 93% 29.91 in 7.0 mi NNE 4.6 mph - 0.00 in   Overcast
12:39 AM 44.6 °F 40.7 °F 42.8 °F 93% 29.92 in 10.0 mi North 6.9 mph - 0.00 in   Overcast
12:54 AM 44.6 °F 40.7 °F 42.8 °F 93% 29.92 in 10.0 mi North 6.9 mph - N/A   Overcast
1:01 AM 46.4 °F 43.5 °F 42.8 °F 87% 29.92 in 10.0 mi North 5.8 mph - N/A   Overcast
1:54 AM 44.6 °F 41.4 °F 42.8 °F 93% 29.91 in 9.0 mi North 5.8 mph - N/A   Overcast
2:30 AM 44.6 °F 40.2 °F 42.8 °F 93% 29.91 in 10.0 mi North 8.1 mph - N/A   Overcast
2:54 AM 45.0 °F 41.2 °F 42.1 °F 90% 29.91 in 10.0 mi North 6.9 mph - N/A   Overcast
3:54 AM 44.6 °F 40.2 °F 39.2 °F 81% 29.91 in 10.0 mi North 8.1 mph - N/A   Overcast
4:12 AM 44.6 °F 40.7 °F 39.2 °F 81% 29.91 in 10.0 mi North 6.9 mph - N/A   Overcast
4:54 AM 44.1 °F 39.5 °F 39.9 °F 85% 29.92 in 10.0 mi North 8.1 mph - N/A   Overcast
5:54 AM 44.1 °F 40.8 °F 39.9 °F 85% 29.95 in 10.0 mi North 5.8 mph - N/A   Overcast
6:54 AM 44.1 °F - 39.0 °F 82% 29.95 in 10.0 mi Calm Calm - 0.01 in   Overcast
7:54 AM 43.0 °F 39.5 °F 39.9 °F 89% 29.94 in 10.0 mi North 5.8 mph - 0.00 in   Overcast
8:39 AM 42.8 °F 40.1 °F 39.2 °F 87% 29.95 in 7.0 mi NNE 4.6 mph - 0.01 in Rain Light Rain
8:54 AM 43.0 °F 39.5 °F 39.0 °F 86% 29.98 in 9.0 mi North 5.8 mph - 0.01 in Rain Light Rain
9:54 AM 44.1 °F - 37.9 °F 79% 30.00 in 10.0 mi Calm Calm - 0.00 in   Overcast
10:54 AM 45.0 °F 40.6 °F 37.9 °F 76% 30.01 in 10.0 mi West 8.1 mph - N/A   Overcast
11:21 AM 42.8 °F 37.0 °F 37.4 °F 81% 30.01 in 10.0 mi WNW 10.4 mph - 0.00 in Rain Light Rain
11:54 AM 44.1 °F 39.0 °F 37.9 °F 79% 30.02 in 10.0 mi West 9.2 mph - 0.00 in   Overcast
12:28 PM 44.6 °F 39.2 °F 37.4 °F 76% 30.01 in 10.0 mi WNW 10.4 mph - N/A   Mostly Cloudy
12:54 PM 48.0 °F - 37.9 °F 68% 30.02 in 10.0 mi WNW 8.1 mph - N/A   Scattered Clouds
1:54 PM 45.0 °F 38.5 °F 37.0 °F 74% 30.02 in 10.0 mi NW 13.8 mph - N/A   Overcast
2:54 PM 45.0 °F 38.9 °F 36.0 °F 71% 30.03 in 10.0 mi NNW 12.7 mph - N/A   Mostly Cloudy
3:54 PM 48.9 °F - 36.0 °F 61% 30.04 in 10.0 mi NNW 9.2 mph - N/A   Mostly Cloudy
4:54 PM 48.0 °F - 34.0 °F 58% 30.05 in 10.0 mi NNW 10.4 mph - N/A   Scattered Clouds
5:54 PM 48.0 °F - 33.1 °F 56% 30.07 in 10.0 mi NNW 11.5 mph - N/A   Clear
6:54 PM 44.1 °F 40.8 °F 34.0 °F 68% 30.11 in 10.0 mi NW 5.8 mph - N/A   Partly Cloudy
7:45 PM 42.8 °F 41.1 °F 33.8 °F 70% 30.11 in 10.0 mi WNW 3.5 mph - N/A   Mostly Cloudy
7:54 PM 42.1 °F 40.2 °F 35.1 °F 76% 30.14 in 10.0 mi WNW 3.5 mph - N/A   Mostly Cloudy
8:42 PM 39.2 °F 35.0 °F 33.8 °F 81% 30.13 in 10.0 mi NNW 5.8 mph - N/A   Scattered Clouds
8:54 PM 42.8 °F 41.1 °F 35.6 °F 76% 30.13 in 10.0 mi NNW 3.5 mph - N/A   Scattered Clouds
9:54 PM 37.0 °F - 32.0 °F 82% 30.16 in 10.0 mi Calm Calm - N/A   Clear
10:54 PM 36.0 °F - 32.0 °F 86% 30.17 in 10.0 mi Calm Calm - N/A   Clear
11:54 PM 35.1 °F - 30.9 °F 85% 30.17 in 10.0 mi Calm Calm - N/A   Partly Cloudy